Year,Month,Day,Hour,Minute,Value (Times are PST for temperature in C)
2007,06,23,00,01,11.30
2007,06,23,00,02,11.30
2007,06,23,00,03,11.30
2007,06,23,00,04,11.30
2007,06,23,00,05,11.30
2007,06,23,00,06,11.30
2007,06,23,00,07,11.30
2007,06,23,00,08,11.30
2007,06,23,00,09,11.30
2007,06,23,00,10,11.30
2007,06,23,00,11,11.30
2007,06,23,00,12,11.30
2007,06,23,00,13,11.30
2007,06,23,00,14,11.30
2007,06,23,00,15,11.30
2007,06,23,00,16,11.30
2007,06,23,00,17,11.30
2007,06,23,00,18,11.30
2007,06,23,00,19,11.30
2007,06,23,00,20,11.30
2007,06,23,00,21,11.30
2007,06,23,00,22,11.30
2007,06,23,00,23,11.30
2007,06,23,00,24,11.30
2007,06,23,00,25,11.30
2007,06,23,00,26,11.30
2007,06,23,00,27,11.30
2007,06,23,00,28,11.30
2007,06,23,00,29,11.30
2007,06,23,00,30,11.30
2007,06,23,00,31,11.20
2007,06,23,00,32,11.20
2007,06,23,00,33,11.20
2007,06,23,00,34,11.20
2007,06,23,00,35,11.20
2007,06,23,00,36,11.20
2007,06,23,00,37,11.20
2007,06,23,00,38,11.20
2007,06,23,00,39,11.20
2007,06,23,00,40,11.20
2007,06,23,00,41,11.20
2007,06,23,00,42,11.20
2007,06,23,00,43,11.20
2007,06,23,00,44,11.20
2007,06,23,00,45,11.20
2007,06,23,00,46,11.20
2007,06,23,00,47,11.20
2007,06,23,00,48,11.20
2007,06,23,00,49,11.20
2007,06,23,00,50,11.20
2007,06,23,00,51,11.20
2007,06,23,00,52,11.20
2007,06,23,00,53,11.10
2007,06,23,00,54,11.10
2007,06,23,00,55,11.10
2007,06,23,00,56,11.10
2007,06,23,00,57,11.10
2007,06,23,00,58,11.10
2007,06,23,00,59,11.10
2007,06,23,01,00,11.10
2007,06,23,01,01,11.10
2007,06,23,01,02,11.10
2007,06,23,01,03,11.10
2007,06,23,01,04,11.10
2007,06,23,01,05,11.10
2007,06,23,01,06,11.10
2007,06,23,01,07,11.10
2007,06,23,01,08,11.10
2007,06,23,01,09,11.10
2007,06,23,01,10,11.10
2007,06,23,01,11,11.10
2007,06,23,01,12,11.10
2007,06,23,01,13,11.10
2007,06,23,01,14,11.10
2007,06,23,01,15,11.10
2007,06,23,01,16,11.10
2007,06,23,01,17,11.10
2007,06,23,01,18,10.90
2007,06,23,01,19,10.90
2007,06,23,01,20,10.90
2007,06,23,01,21,10.90
2007,06,23,01,22,10.90
2007,06,23,01,23,10.90
2007,06,23,01,24,10.90
2007,06,23,01,25,10.90
2007,06,23,01,26,10.90
2007,06,23,01,27,10.90
2007,06,23,01,28,10.90
2007,06,23,01,29,10.90
2007,06,23,01,30,10.90
2007,06,23,01,31,10.90
2007,06,23,01,32,10.90
2007,06,23,01,33,10.90
2007,06,23,01,34,10.90
2007,06,23,01,35,10.90
2007,06,23,01,36,10.90
2007,06,23,01,37,10.90
2007,06,23,01,38,10.80
2007,06,23,01,39,10.80
2007,06,23,01,40,10.80
2007,06,23,01,41,10.80
2007,06,23,01,42,10.80
2007,06,23,01,43,10.80
2007,06,23,01,44,10.80
2007,06,23,01,45,10.80
2007,06,23,01,46,10.80
2007,06,23,01,47,10.70
2007,06,23,01,48,10.70
2007,06,23,01,49,10.70
2007,06,23,01,50,10.70
2007,06,23,01,51,10.70
2007,06,23,01,52,10.60
2007,06,23,01,53,10.60
2007,06,23,01,54,10.60
2007,06,23,01,55,10.60
2007,06,23,01,56,10.60
2007,06,23,01,57,10.60
2007,06,23,01,58,10.60
2007,06,23,01,59,10.60
2007,06,23,02,00,10.60
2007,06,23,02,01,10.60
2007,06,23,02,02,10.40
2007,06,23,02,03,10.40
2007,06,23,02,04,10.40
2007,06,23,02,05,10.40
2007,06,23,02,06,10.40
2007,06,23,02,07,10.40
2007,06,23,02,08,10.40
2007,06,23,02,09,10.40
2007,06,23,02,10,10.40
2007,06,23,02,11,10.40
2007,06,23,02,12,10.40
2007,06,23,02,13,10.40
2007,06,23,02,14,10.40
2007,06,23,02,15,10.40
2007,06,23,02,16,10.40
2007,06,23,02,17,10.40
2007,06,23,02,18,10.40
2007,06,23,02,19,10.40
2007,06,23,02,20,10.40
2007,06,23,02,21,10.40
2007,06,23,02,22,10.40
2007,06,23,02,23,10.40
2007,06,23,02,24,10.40
2007,06,23,02,25,10.40
2007,06,23,02,26,10.40
2007,06,23,02,27,10.40
2007,06,23,02,28,10.30
2007,06,23,02,29,10.30
2007,06,23,02,30,10.30
2007,06,23,02,31,10.30
2007,06,23,02,32,10.30
2007,06,23,02,33,10.30
2007,06,23,02,34,10.30
2007,06,23,02,35,10.30
2007,06,23,02,36,10.30
2007,06,23,02,37,10.30
2007,06,23,02,38,10.20
2007,06,23,02,39,10.20
2007,06,23,02,40,10.20
2007,06,23,02,41,10.20
2007,06,23,02,42,10.20
2007,06,23,02,43,10.20
2007,06,23,02,44,10.20
2007,06,23,02,45,10.20
2007,06,23,02,46,10.20
2007,06,23,02,47,10.20
2007,06,23,02,48,10.20
2007,06,23,02,49,10.20
2007,06,23,02,50,10.20
2007,06,23,02,51,10.20
2007,06,23,02,52,10.20
2007,06,23,02,53,10.20
2007,06,23,02,54,10.20
2007,06,23,02,55,10.20
2007,06,23,02,56,10.20
2007,06,23,02,57,10.20
2007,06,23,02,58,10.10
2007,06,23,02,59,10.10
2007,06,23,03,00,10.10
2007,06,23,03,01,10.10
2007,06,23,03,02,10.10
2007,06,23,03,03,10.10
2007,06,23,03,04,10.10
2007,06,23,03,05,10.10
2007,06,23,03,08,10.10
2007,06,23,03,09,10.10
2007,06,23,03,10,10.10
2007,06,23,03,11,10.10
2007,06,23,03,12,10.10
2007,06,23,03,13,10.10
2007,06,23,03,14,10.10
2007,06,23,03,15,10.10
2007,06,23,03,16,10.10
2007,06,23,03,17,10.10
2007,06,23,03,18,10.10
2007,06,23,03,19,10.10
2007,06,23,03,20,10.10
2007,06,23,03,21,10.10
2007,06,23,03,22,10.10
2007,06,23,03,23,10.10
2007,06,23,03,24,10.10
2007,06,23,03,25,10.10
2007,06,23,03,26,10.10
2007,06,23,03,27,9.90
2007,06,23,03,28,9.90
2007,06,23,03,29,9.90
2007,06,23,03,30,9.90
2007,06,23,03,31,9.90
2007,06,23,03,32,9.90
2007,06,23,03,33,9.90
2007,06,23,03,34,9.90
2007,06,23,03,35,9.90
2007,06,23,03,36,9.90
2007,06,23,03,37,9.90
2007,06,23,03,38,9.90
2007,06,23,03,39,9.90
2007,06,23,03,40,9.90
2007,06,23,03,41,9.80
2007,06,23,03,42,9.80
2007,06,23,03,43,9.80
2007,06,23,03,44,9.80
2007,06,23,03,45,9.80
2007,06,23,03,46,9.80
2007,06,23,03,47,9.80
2007,06,23,03,48,9.70
2007,06,23,03,49,9.70
2007,06,23,03,50,9.70
2007,06,23,03,51,9.70
2007,06,23,03,52,9.70
2007,06,23,03,53,9.70
2007,06,23,03,54,9.70
2007,06,23,03,55,9.70
2007,06,23,03,56,9.70
2007,06,23,03,57,9.70
2007,06,23,03,58,9.70
2007,06,23,03,59,9.70
2007,06,23,04,00,9.70
2007,06,23,04,01,9.60
2007,06,23,04,02,9.60
2007,06,23,04,03,9.60
2007,06,23,04,04,9.60
2007,06,23,04,05,9.60
2007,06,23,04,06,9.60
2007,06,23,04,07,9.50
2007,06,23,04,08,9.50
2007,06,23,04,09,9.50
2007,06,23,04,10,9.50
2007,06,23,04,11,9.50
2007,06,23,04,12,9.50
2007,06,23,04,13,9.50
2007,06,23,04,14,9.40
2007,06,23,04,15,9.40
2007,06,23,04,16,9.40
2007,06,23,04,17,9.40
2007,06,23,04,18,9.40
2007,06,23,04,19,9.40
2007,06,23,04,20,9.40
2007,06,23,04,21,9.40
2007,06,23,04,22,9.40
2007,06,23,04,23,9.40
2007,06,23,04,24,9.30
2007,06,23,04,25,9.30
2007,06,23,04,26,9.30
2007,06,23,04,27,9.30
2007,06,23,04,28,9.30
2007,06,23,04,29,9.30
2007,06,23,04,30,9.30
2007,06,23,04,31,9.30
2007,06,23,04,32,9.30
2007,06,23,04,33,9.30
2007,06,23,04,34,9.30
2007,06,23,04,35,9.20
2007,06,23,04,36,9.20
2007,06,23,04,37,9.20
2007,06,23,04,38,9.20
2007,06,23,04,39,9.20
2007,06,23,04,40,9.20
2007,06,23,04,41,9.20
2007,06,23,04,42,9.20
2007,06,23,04,43,9.20
2007,06,23,04,44,9.20
2007,06,23,04,45,9.20
2007,06,23,04,46,9.10
2007,06,23,04,47,9.10
2007,06,23,04,48,9.10
2007,06,23,04,49,9.10
2007,06,23,04,50,9.10
2007,06,23,04,51,9.00
2007,06,23,04,52,9.00
2007,06,23,04,53,9.00
2007,06,23,04,54,9.00
2007,06,23,04,55,9.00
2007,06,23,04,56,9.00
2007,06,23,04,57,9.00
2007,06,23,04,58,9.00
2007,06,23,04,59,8.90
2007,06,23,05,00,8.90
2007,06,23,05,01,8.90
2007,06,23,05,02,8.90
2007,06,23,05,03,8.90
2007,06,23,05,04,8.90
2007,06,23,05,05,8.90
2007,06,23,05,06,8.90
2007,06,23,05,07,8.90
2007,06,23,05,08,8.90
2007,06,23,05,09,8.90
2007,06,23,05,10,8.90
2007,06,23,05,11,8.90
2007,06,23,05,12,8.90
2007,06,23,05,13,8.90
2007,06,23,05,14,8.90
2007,06,23,05,15,8.90
2007,06,23,05,16,8.90
2007,06,23,05,17,8.90
2007,06,23,05,18,9.00
2007,06,23,05,19,9.00
2007,06,23,05,20,9.00
2007,06,23,05,21,9.00
2007,06,23,05,22,9.00
2007,06,23,05,23,9.00
2007,06,23,05,24,9.00
2007,06,23,05,25,9.00
2007,06,23,05,26,9.00
2007,06,23,05,28,9.00
2007,06,23,05,29,9.00
2007,06,23,05,30,9.00
2007,06,23,05,31,9.10
2007,06,23,05,32,9.10
2007,06,23,05,33,9.10
2007,06,23,05,34,9.10
2007,06,23,05,35,9.10
2007,06,23,05,36,9.10
2007,06,23,05,37,9.10
2007,06,23,05,38,9.10
2007,06,23,05,39,9.10
2007,06,23,05,40,9.10
2007,06,23,05,41,9.10
2007,06,23,05,42,9.10
2007,06,23,05,43,9.10
2007,06,23,05,44,9.10
2007,06,23,05,45,9.10
2007,06,23,05,46,9.10
2007,06,23,05,47,9.10
2007,06,23,05,48,9.20
2007,06,23,05,49,9.20
2007,06,23,05,50,9.20
2007,06,23,05,51,9.20
2007,06,23,05,52,9.20
2007,06,23,05,53,9.20
2007,06,23,05,54,9.20
2007,06,23,05,55,9.20
2007,06,23,05,56,9.20
2007,06,23,05,57,9.20
2007,06,23,05,58,9.20
2007,06,23,05,59,9.20
2007,06,23,06,00,9.20
2007,06,23,06,01,9.20
2007,06,23,06,02,9.20
2007,06,23,06,03,9.20
2007,06,23,06,04,9.20
2007,06,23,06,05,9.20
2007,06,23,06,06,9.20
2007,06,23,06,07,9.20
2007,06,23,06,08,9.20
2007,06,23,06,09,9.20
2007,06,23,06,10,9.20
2007,06,23,06,11,9.20
2007,06,23,06,12,9.20
2007,06,23,06,13,9.20
2007,06,23,06,14,9.20
2007,06,23,06,15,9.20
2007,06,23,06,16,9.20
2007,06,23,06,17,9.20
2007,06,23,06,18,9.20
2007,06,23,06,19,9.20
2007,06,23,06,20,9.30
2007,06,23,06,21,9.30
2007,06,23,06,22,9.30
2007,06,23,06,23,9.30
2007,06,23,06,24,9.30
2007,06,23,06,25,9.30
2007,06,23,06,26,9.40
2007,06,23,06,27,9.40
2007,06,23,06,28,9.40
2007,06,23,06,29,9.40
2007,06,23,06,30,9.50
2007,06,23,06,31,9.50
2007,06,23,06,32,9.50
2007,06,23,06,33,9.50
2007,06,23,06,34,9.50
2007,06,23,06,35,9.50
2007,06,23,06,36,9.60
2007,06,23,06,37,9.60
2007,06,23,06,38,9.60
2007,06,23,06,39,9.60
2007,06,23,06,40,9.60
2007,06,23,06,41,9.60
2007,06,23,06,42,9.70
2007,06,23,06,43,9.70
2007,06,23,06,44,9.70
2007,06,23,06,45,9.70
2007,06,23,06,46,9.70
2007,06,23,06,47,9.70
2007,06,23,06,48,9.70
2007,06,23,06,49,9.70
2007,06,23,06,50,9.70
2007,06,23,06,51,9.70
2007,06,23,06,52,9.70
2007,06,23,06,53,9.70
2007,06,23,06,54,9.80
2007,06,23,06,55,9.80
2007,06,23,06,56,9.80
2007,06,23,06,57,9.80
2007,06,23,06,58,9.80
2007,06,23,06,59,9.90
2007,06,23,07,00,9.90
2007,06,23,07,01,9.90
2007,06,23,07,02,9.90
2007,06,23,07,03,9.90
2007,06,23,07,04,9.90
2007,06,23,07,05,9.90
2007,06,23,07,06,9.90
2007,06,23,07,07,9.90
2007,06,23,07,08,9.90
2007,06,23,07,09,9.90
2007,06,23,07,10,9.90
2007,06,23,07,11,10.10
2007,06,23,07,12,10.10
2007,06,23,07,13,10.10
2007,06,23,07,14,10.10
2007,06,23,07,15,10.10
2007,06,23,07,16,10.10
2007,06,23,07,17,10.10
2007,06,23,07,18,10.10
2007,06,23,07,19,10.10
2007,06,23,07,20,10.20
2007,06,23,07,21,10.20
2007,06,23,07,22,10.20
2007,06,23,07,23,10.20
2007,06,23,07,24,10.20
2007,06,23,07,25,10.20
2007,06,23,07,26,10.20
2007,06,23,07,27,10.20
2007,06,23,07,28,10.20
2007,06,23,07,29,10.20
2007,06,23,07,30,10.20
2007,06,23,07,31,10.20
2007,06,23,07,32,10.20
2007,06,23,07,33,10.20
2007,06,23,07,34,10.20
2007,06,23,07,35,10.20
2007,06,23,07,36,10.20
2007,06,23,07,37,10.20
2007,06,23,07,38,10.30
2007,06,23,07,39,10.30
2007,06,23,07,40,10.30
2007,06,23,07,41,10.30
2007,06,23,07,42,10.30
2007,06,23,07,43,10.30
2007,06,23,07,44,10.30
2007,06,23,07,45,10.30
2007,06,23,07,46,10.30
2007,06,23,07,47,10.30
2007,06,23,07,48,10.30
2007,06,23,07,49,10.30
2007,06,23,07,50,10.30
2007,06,23,07,51,10.30
2007,06,23,07,52,10.20
2007,06,23,07,53,10.20
2007,06,23,07,54,10.20
2007,06,23,07,55,10.20
2007,06,23,07,56,10.20
2007,06,23,07,57,10.20
2007,06,23,07,58,10.20
2007,06,23,07,59,10.20
2007,06,23,08,00,10.10
2007,06,23,08,01,10.10
2007,06,23,08,02,10.20
2007,06,23,08,03,10.20
2007,06,23,08,04,10.20
2007,06,23,08,05,10.20
2007,06,23,08,06,10.20
2007,06,23,08,07,10.20
2007,06,23,08,08,10.20
2007,06,23,08,09,10.20
2007,06,23,08,10,10.20
2007,06,23,08,11,10.20
2007,06,23,08,12,10.20
2007,06,23,08,13,10.20
2007,06,23,08,14,10.30
2007,06,23,08,15,10.20
2007,06,23,08,16,10.20
2007,06,23,08,17,10.20
2007,06,23,08,18,10.20
2007,06,23,08,19,10.20
2007,06,23,08,20,10.20
2007,06,23,08,21,10.20
2007,06,23,08,22,10.20
2007,06,23,08,23,10.20
2007,06,23,08,24,10.20
2007,06,23,08,25,10.30
2007,06,23,08,26,10.30
2007,06,23,08,27,10.30
2007,06,23,08,28,10.40
2007,06,23,08,29,10.40
2007,06,23,08,30,10.40
2007,06,23,08,31,10.40
2007,06,23,08,32,10.60
2007,06,23,08,33,10.60
2007,06,23,08,34,10.60
2007,06,23,08,35,10.60
2007,06,23,08,36,10.70
2007,06,23,08,37,10.70
2007,06,23,08,38,10.80
2007,06,23,08,39,10.80
2007,06,23,08,40,10.90
2007,06,23,08,41,10.90
2007,06,23,08,42,10.90
2007,06,23,08,43,10.90
2007,06,23,08,44,11.10
2007,06,23,08,45,11.10
2007,06,23,08,46,11.10
2007,06,23,08,47,11.10
2007,06,23,08,48,11.10
2007,06,23,08,49,11.20
2007,06,23,08,50,11.20
2007,06,23,08,51,11.30
2007,06,23,08,52,11.30
2007,06,23,08,53,11.30
2007,06,23,08,54,11.40
2007,06,23,08,55,11.40
2007,06,23,08,56,11.40
2007,06,23,08,57,11.40
2007,06,23,08,58,11.40
2007,06,23,08,59,11.60
2007,06,23,09,00,11.60
2007,06,23,09,01,11.60
2007,06,23,09,02,11.60
2007,06,23,09,03,11.60
2007,06,23,09,04,11.60
2007,06,23,09,05,11.60
2007,06,23,09,06,11.70
2007,06,23,09,07,11.70
2007,06,23,09,08,11.80
2007,06,23,09,09,11.80
2007,06,23,09,10,11.80
2007,06,23,09,11,11.80
2007,06,23,09,12,11.80
2007,06,23,09,13,11.80
2007,06,23,09,14,11.90
2007,06,23,09,15,11.90
2007,06,23,09,16,11.90
2007,06,23,09,17,12.00
2007,06,23,09,18,12.00
2007,06,23,09,19,12.00
2007,06,23,09,20,12.00
2007,06,23,09,21,12.10
2007,06,23,09,22,12.10
2007,06,23,09,23,12.20
2007,06,23,09,24,12.20
2007,06,23,09,25,12.30
2007,06,23,09,26,12.30
2007,06,23,09,27,12.30
2007,06,23,09,28,12.30
2007,06,23,09,29,12.30
2007,06,23,09,30,12.30
2007,06,23,09,31,12.40
2007,06,23,09,32,12.40
2007,06,23,09,34,12.50
2007,06,23,09,35,12.60
2007,06,23,09,36,12.60
2007,06,23,09,37,12.70
2007,06,23,09,38,12.70
2007,06,23,09,39,12.70
2007,06,23,09,40,12.80
2007,06,23,09,41,12.80
2007,06,23,09,42,12.80
2007,06,23,09,43,12.90
2007,06,23,09,44,12.90
2007,06,23,09,45,12.90
2007,06,23,09,46,13.00
2007,06,23,09,47,13.00
2007,06,23,09,48,13.00
2007,06,23,09,49,13.10
2007,06,23,09,50,13.10
2007,06,23,09,51,13.10
2007,06,23,09,52,13.10
2007,06,23,09,53,13.10
2007,06,23,09,54,13.20
2007,06,23,09,55,13.20
2007,06,23,09,56,13.20
2007,06,23,09,57,13.30
2007,06,23,09,58,13.30
2007,06,23,09,59,13.30
2007,06,23,10,00,13.30
2007,06,23,10,01,13.30
2007,06,23,10,02,13.30
2007,06,23,10,03,13.30
2007,06,23,10,04,13.30
2007,06,23,10,05,13.30
2007,06,23,10,06,13.30
2007,06,23,10,07,13.30
2007,06,23,10,08,13.30
2007,06,23,10,09,13.40
2007,06,23,10,10,13.40
2007,06,23,10,11,13.40
2007,06,23,10,12,13.50
2007,06,23,10,13,13.50
2007,06,23,10,14,13.50
2007,06,23,10,15,13.60
2007,06,23,10,16,13.60
2007,06,23,10,17,13.60
2007,06,23,10,18,13.70
2007,06,23,10,19,13.70
2007,06,23,10,20,13.70
2007,06,23,10,21,13.80
2007,06,23,10,22,13.90
2007,06,23,10,23,14.00
2007,06,23,10,24,14.10
2007,06,23,10,25,14.20
2007,06,23,10,26,14.20
2007,06,23,10,27,14.20
2007,06,23,10,28,14.30
2007,06,23,10,29,14.50
2007,06,23,10,30,14.50
2007,06,23,10,31,14.60
2007,06,23,10,32,14.70
2007,06,23,10,33,14.80
2007,06,23,10,34,14.80
2007,06,23,10,35,14.80
2007,06,23,10,36,14.90
2007,06,23,10,37,15.00
2007,06,23,10,38,15.10
2007,06,23,10,39,15.10
2007,06,23,10,40,15.10
2007,06,23,10,41,15.00
2007,06,23,10,42,15.10
2007,06,23,10,43,15.10
2007,06,23,10,44,15.00
2007,06,23,10,45,15.00
2007,06,23,10,46,15.00
2007,06,23,10,47,15.10
2007,06,23,10,48,15.10
2007,06,23,10,49,15.20
2007,06,23,10,50,15.30
2007,06,23,10,51,15.30
2007,06,23,10,52,15.30
2007,06,23,10,53,15.40
2007,06,23,10,54,15.50
2007,06,23,10,55,15.50
2007,06,23,10,56,15.60
2007,06,23,10,57,15.70
2007,06,23,10,58,15.80
2007,06,23,10,59,15.80
2007,06,23,11,00,15.80
2007,06,23,11,01,15.90
2007,06,23,11,02,16.10
2007,06,23,11,03,16.10
2007,06,23,11,04,16.20
2007,06,23,11,05,16.20
2007,06,23,11,06,16.30
2007,06,23,11,07,16.30
2007,06,23,11,08,16.30
2007,06,23,11,09,16.30
2007,06,23,11,10,16.40
2007,06,23,11,11,16.40
2007,06,23,11,12,16.40
2007,06,23,11,13,16.40
2007,06,23,11,14,16.30
2007,06,23,11,15,16.30
2007,06,23,11,16,16.30
2007,06,23,11,17,16.30
2007,06,23,11,18,16.30
2007,06,23,11,19,16.40
2007,06,23,11,20,16.40
2007,06,23,11,21,16.40
2007,06,23,11,22,16.40
2007,06,23,11,23,16.40
2007,06,23,11,24,16.60
2007,06,23,11,25,16.60
2007,06,23,11,26,16.70
2007,06,23,11,27,16.70
2007,06,23,11,28,16.70
2007,06,23,11,29,16.70
2007,06,23,11,30,16.70
2007,06,23,11,31,16.80
2007,06,23,11,32,16.80
2007,06,23,11,33,16.80
2007,06,23,11,34,16.80
2007,06,23,11,35,16.80
2007,06,23,11,36,16.80
2007,06,23,11,37,16.80
2007,06,23,11,38,16.90
2007,06,23,11,39,16.90
2007,06,23,11,40,16.90
2007,06,23,11,41,16.90
2007,06,23,11,42,16.90
2007,06,23,11,43,17.00
2007,06,23,11,44,17.00
2007,06,23,11,45,17.10
2007,06,23,11,46,17.10
2007,06,23,11,47,17.10
2007,06,23,11,48,17.10
2007,06,23,11,49,17.10
2007,06,23,11,50,17.00
2007,06,23,11,51,17.00
2007,06,23,11,52,16.90
2007,06,23,11,53,16.90
2007,06,23,11,54,16.90
2007,06,23,11,55,16.80
2007,06,23,11,56,16.70
2007,06,23,11,57,16.70
2007,06,23,11,58,16.70
2007,06,23,11,59,16.60
2007,06,23,12,00,16.40
2007,06,23,12,01,16.40
2007,06,23,12,02,16.30
2007,06,23,12,03,16.20
2007,06,23,12,04,16.20
2007,06,23,12,05,16.10
2007,06,23,12,06,16.10
2007,06,23,12,07,15.90
2007,06,23,12,08,15.90
2007,06,23,12,09,15.90
2007,06,23,12,10,15.90
2007,06,23,12,11,15.90
2007,06,23,12,12,15.90
2007,06,23,12,13,15.90
2007,06,23,12,14,16.10
2007,06,23,12,15,16.10
2007,06,23,12,16,16.10
2007,06,23,12,17,16.20
2007,06,23,12,18,16.40
2007,06,23,12,19,16.40
2007,06,23,12,20,16.70
2007,06,23,12,21,16.70
2007,06,23,12,22,16.80
2007,06,23,12,23,16.90
2007,06,23,12,24,17.10
2007,06,23,12,25,17.20
2007,06,23,12,26,17.30
2007,06,23,12,27,17.30
2007,06,23,12,28,17.40
2007,06,23,12,29,17.40
2007,06,23,12,30,17.50
2007,06,23,12,31,17.50
2007,06,23,12,32,17.60
2007,06,23,12,33,17.60
2007,06,23,12,34,17.60
2007,06,23,12,35,17.60
2007,06,23,12,36,17.70
2007,06,23,12,37,17.70
2007,06,23,12,38,17.80
2007,06,23,12,39,17.80
2007,06,23,12,40,17.90
2007,06,23,12,41,17.90
2007,06,23,12,42,17.90
2007,06,23,12,43,18.10
2007,06,23,12,44,18.10
2007,06,23,12,45,18.20
2007,06,23,12,46,18.20
2007,06,23,12,47,18.20
2007,06,23,12,48,18.20
2007,06,23,12,49,18.30
2007,06,23,12,50,18.30
2007,06,23,12,51,18.30
2007,06,23,12,52,18.30
2007,06,23,12,53,18.40
2007,06,23,12,54,18.40
2007,06,23,12,55,18.40
2007,06,23,12,56,18.40
2007,06,23,12,57,18.50
2007,06,23,12,58,18.50
2007,06,23,12,59,18.50
2007,06,23,13,00,18.50
2007,06,23,13,01,18.50
2007,06,23,13,02,18.50
2007,06,23,13,03,18.60
2007,06,23,13,04,18.60
2007,06,23,13,05,18.60
2007,06,23,13,06,18.60
2007,06,23,13,07,18.70
2007,06,23,13,08,18.70
2007,06,23,13,09,18.70
2007,06,23,13,10,18.60
2007,06,23,13,11,18.60
2007,06,23,13,12,18.50
2007,06,23,13,13,18.50
2007,06,23,13,14,18.40
2007,06,23,13,15,18.30
2007,06,23,13,16,18.30
2007,06,23,13,17,18.20
2007,06,23,13,18,18.10
2007,06,23,13,19,17.90
2007,06,23,13,20,17.70
2007,06,23,13,21,17.50
2007,06,23,13,22,17.40
2007,06,23,13,23,17.30
2007,06,23,13,24,17.20
2007,06,23,13,25,17.00
2007,06,23,13,26,16.90
2007,06,23,13,27,16.70
2007,06,23,13,28,16.70
2007,06,23,13,29,16.60
2007,06,23,13,30,16.40
2007,06,23,13,31,16.40
2007,06,23,13,32,16.30
2007,06,23,13,33,16.30
2007,06,23,13,34,16.30
2007,06,23,13,35,16.20
2007,06,23,13,36,16.30
2007,06,23,13,37,16.30
2007,06,23,13,38,16.30
2007,06,23,13,39,16.40
2007,06,23,13,40,16.40
2007,06,23,13,41,16.60
2007,06,23,13,42,16.70
2007,06,23,13,43,16.70
2007,06,23,13,44,16.80
2007,06,23,13,45,16.90
2007,06,23,13,46,17.00
2007,06,23,13,47,17.20
2007,06,23,13,48,17.30
2007,06,23,13,49,17.30
2007,06,23,13,50,17.30
2007,06,23,13,51,17.40
2007,06,23,13,52,17.40
2007,06,23,13,53,17.50
2007,06,23,13,54,17.50
2007,06,23,13,55,17.50
2007,06,23,13,56,17.50
2007,06,23,13,57,17.50
2007,06,23,13,58,17.50
2007,06,23,13,59,17.50
2007,06,23,14,00,17.40
2007,06,23,14,01,17.30
2007,06,23,14,02,17.30
2007,06,23,14,03,17.20
2007,06,23,14,04,17.10
2007,06,23,14,05,17.00
2007,06,23,14,06,16.90
2007,06,23,14,07,16.80
2007,06,23,14,08,16.70
2007,06,23,14,09,16.70
2007,06,23,14,10,16.70
2007,06,23,14,11,16.70
2007,06,23,14,12,16.70
2007,06,23,14,13,16.70
2007,06,23,14,14,16.60
2007,06,23,14,15,16.60
2007,06,23,14,16,16.40
2007,06,23,14,17,16.40
2007,06,23,14,18,16.40
2007,06,23,14,19,16.40
2007,06,23,14,20,16.40
2007,06,23,14,21,16.40
2007,06,23,14,22,16.40
2007,06,23,14,23,16.40
2007,06,23,14,24,16.40
2007,06,23,14,25,16.40
2007,06,23,14,26,16.40
2007,06,23,14,27,16.60
2007,06,23,14,28,16.60
2007,06,23,14,29,16.70
2007,06,23,14,30,16.70
2007,06,23,14,31,16.70
2007,06,23,14,32,16.70
2007,06,23,14,33,16.70
2007,06,23,14,34,16.80
2007,06,23,14,35,16.80
2007,06,23,14,36,16.70
2007,06,23,14,37,16.70
2007,06,23,14,38,16.70
2007,06,23,14,39,16.70
2007,06,23,14,40,16.70
2007,06,23,14,41,16.60
2007,06,23,14,42,16.60
2007,06,23,14,43,16.60
2007,06,23,14,44,16.40
2007,06,23,14,45,16.40
2007,06,23,14,46,16.40
2007,06,23,14,47,16.40
2007,06,23,14,48,16.40
2007,06,23,14,49,16.40
2007,06,23,14,50,16.40
2007,06,23,14,51,16.40
2007,06,23,14,52,16.60
2007,06,23,14,53,16.60
2007,06,23,14,54,16.60
2007,06,23,14,55,16.70
2007,06,23,14,56,16.70
2007,06,23,14,57,16.70
2007,06,23,14,58,16.70
2007,06,23,14,59,16.70
2007,06,23,15,00,16.70
2007,06,23,15,01,16.70
2007,06,23,15,02,16.70
2007,06,23,15,03,16.70
2007,06,23,15,04,16.60
2007,06,23,15,05,16.60
2007,06,23,15,06,16.40
2007,06,23,15,07,16.40
2007,06,23,15,08,16.40
2007,06,23,15,09,16.40
2007,06,23,15,10,16.30
2007,06,23,15,11,16.20
2007,06,23,15,12,16.10
2007,06,23,15,13,16.10
2007,06,23,15,14,15.90
2007,06,23,15,15,15.80
2007,06,23,15,16,15.70
2007,06,23,15,17,15.50
2007,06,23,15,18,15.40
2007,06,23,15,19,15.30
2007,06,23,15,20,15.10
2007,06,23,15,21,14.90
2007,06,23,15,22,14.80
2007,06,23,15,23,14.70
2007,06,23,15,24,14.50
2007,06,23,15,25,14.30
2007,06,23,15,26,14.20
2007,06,23,15,27,14.20
2007,06,23,15,28,14.10
2007,06,23,15,29,14.00
2007,06,23,15,30,13.90
2007,06,23,15,31,13.80
2007,06,23,15,32,13.70
2007,06,23,15,33,13.70
2007,06,23,15,34,13.70
2007,06,23,15,35,13.70
2007,06,23,15,36,13.70
2007,06,23,15,37,13.60
2007,06,23,15,38,13.60
2007,06,23,15,39,13.50
2007,06,23,15,40,13.50
2007,06,23,15,41,13.50
2007,06,23,15,42,13.50
2007,06,23,15,43,13.40
2007,06,23,15,44,13.40
2007,06,23,15,45,13.40
2007,06,23,15,46,13.40
2007,06,23,15,47,13.40
2007,06,23,15,48,13.40
2007,06,23,15,49,13.40
2007,06,23,15,50,13.40
2007,06,23,15,51,13.30
2007,06,23,15,52,13.40
2007,06,23,15,53,13.40
2007,06,23,15,54,13.40
2007,06,23,15,55,13.40
2007,06,23,15,56,13.40
2007,06,23,15,57,13.40
2007,06,23,15,58,13.40
2007,06,23,15,59,13.40
2007,06,23,16,00,13.40
2007,06,23,16,01,13.40
2007,06,23,16,02,13.50
2007,06,23,16,03,13.50
2007,06,23,16,04,13.50
2007,06,23,16,05,13.50
2007,06,23,16,06,13.50
2007,06,23,16,07,13.50
2007,06,23,16,08,13.50
2007,06,23,16,09,13.50
2007,06,23,16,10,13.50
2007,06,23,16,11,13.40
2007,06,23,16,12,13.40
2007,06,23,16,13,13.30
2007,06,23,16,14,13.30
2007,06,23,16,15,13.30
2007,06,23,16,16,13.30
2007,06,23,16,17,13.30
2007,06,23,16,18,13.30
2007,06,23,16,20,13.20
2007,06,23,16,21,13.20
2007,06,23,16,22,13.20
2007,06,23,16,23,13.10
2007,06,23,16,24,13.10
2007,06,23,16,25,13.10
2007,06,23,16,26,13.10
2007,06,23,16,27,13.10
2007,06,23,16,28,13.10
2007,06,23,16,29,13.10
2007,06,23,16,30,13.20
2007,06,23,16,31,13.20
2007,06,23,16,32,13.20
2007,06,23,16,33,13.20
2007,06,23,16,34,13.20
2007,06,23,16,35,13.20
2007,06,23,16,36,13.20
2007,06,23,16,37,13.30
2007,06,23,16,38,13.30
2007,06,23,16,39,13.30
2007,06,23,16,40,13.30
2007,06,23,16,41,13.30
2007,06,23,16,42,13.30
2007,06,23,16,43,13.30
2007,06,23,16,44,13.30
2007,06,23,16,45,13.30
2007,06,23,16,46,13.30
2007,06,23,16,47,13.30
2007,06,23,16,48,13.30
2007,06,23,16,49,13.30
2007,06,23,16,50,13.30
2007,06,23,16,51,13.30
2007,06,23,16,52,13.40
2007,06,23,16,53,13.40
2007,06,23,16,54,13.30
2007,06,23,16,55,13.40
2007,06,23,16,56,13.40
2007,06,23,16,57,13.40
2007,06,23,16,58,13.40
2007,06,23,16,59,13.30
2007,06,23,17,00,13.20
2007,06,23,17,01,13.10
2007,06,23,17,02,13.00
2007,06,23,17,03,13.00
2007,06,23,17,04,12.90
2007,06,23,17,05,12.80
2007,06,23,17,06,12.80
2007,06,23,17,07,12.80
2007,06,23,17,08,12.70
2007,06,23,17,09,12.70
2007,06,23,17,10,12.70
2007,06,23,17,11,12.70
2007,06,23,17,12,12.70
2007,06,23,17,13,12.70
2007,06,23,17,14,12.60
2007,06,23,17,15,12.60
2007,06,23,17,16,12.60
2007,06,23,17,17,12.50
2007,06,23,17,18,12.50
2007,06,23,17,19,12.40
2007,06,23,17,20,12.40
2007,06,23,17,21,12.40
2007,06,23,17,22,12.40
2007,06,23,17,23,12.40
2007,06,23,17,24,12.40
2007,06,23,17,25,12.40
2007,06,23,17,26,12.40
2007,06,23,17,27,12.40
2007,06,23,17,28,12.50
2007,06,23,17,29,12.50
2007,06,23,17,30,12.50
2007,06,23,17,31,12.50
2007,06,23,17,32,12.50
2007,06,23,17,33,12.50
2007,06,23,17,34,12.50
2007,06,23,17,35,12.40